Location: Del Amo
(33.8464°N, 118.2104°W)
Time: 19:44:55
(UTC+00:00)

Vanguard 3 - Pass Details

Date: 19 September 2024
Orbit: 507 x 3224 km, 33.4° (Epoch: 05 October)

Event Time Altitude Azimuth Distance (km) Brightness Sun altitude
Rises 20:01:15 0° 287° (WNW) 7,044 11.9 57.0°
Reaches altitude 10° 20:06:46 10° 281° (W) 5,798 11.6 56.8°
Maximum altitude 20:21:21 38° 222° (SW) 3,035 11.5 56.2°
Drops below altitude 10° 20:30:46 10° 158° (SSE) 3,752 11.1 55.6°
Sets 20:33:33 0° 149° (SSE) 4,405 11.2 55.4°
